This is the latest recevied weather packets stored in our database for station/object OK1FPA-15. If no packets are shown the sender has not sent any weather packets the latest 10 day(s).
| Time | Temp. | Humidity | Pressure | Rain* | Wind** | Luminosity | Snow |
|---|---|---|---|---|---|---|---|
| 1777652849 | 22.22° C | 29% | 1026.1 hPa | - | - | - | - |
| 1777652250 | 22.22° C | 29% | 1026.1 hPa | - | - | - | - |
| 1777651649 | 21.11° C | 31% | 1026.2 hPa | - | - | - | - |
| 1777651050 | 21.11° C | 31% | 1026.2 hPa | - | - | - | - |
| 1777650450 | 21.11° C | 31% | 1026.3 hPa | - | - | - | - |
| 1777649850 | 21.67° C | 31% | 1026.3 hPa | - | - | - | - |
| 1777649250 | 21.67° C | 30% | 1026.4 hPa | - | - | - | - |
| 1777648650 | 21.67° C | 30% | 1026.5 hPa | - | - | - | - |
| 1777648050 | 21.67° C | 30% | 1026.7 hPa | - | - | - | - |
| 1777647450 | 21.67° C | 29% | 1026.6 hPa | - | - | - | - |
| 1777646850 | 22.22° C | 30% | 1026.8 hPa | - | - | - | - |
| 1777646250 | 21.67° C | 29% | 1026.8 hPa | - | - | - | - |
| 1777645651 | 21.67° C | 30% | 1026.8 hPa | - | - | - | - |
| 1777645050 | 21.67° C | 30% | 1026.9 hPa | - | - | - | - |
| 1777643850 | 21.67° C | 31% | 1027 hPa | - | - | - | - |
| 1777643250 | 21.11° C | 31% | 1027.2 hPa | - | - | - | - |
| 1777642650 | 21.11° C | 31% | 1027.4 hPa | - | - | - | - |
| 1777642050 | 21.67° C | 31% | 1027.3 hPa | - | - | - | - |
| 1777641450 | 21.11° C | 31% | 1027.6 hPa | - | - | - | - |
| 1777640850 | 21.67° C | 31% | 1027.5 hPa | - | - | - | - |
| 1777640250 | 21.67° C | 31% | 1027.7 hPa | - | - | - | - |
| 1777639650 | 21.11° C | 32% | 1027.8 hPa | - | - | - | - |
| 1777639050 | 21.11° C | 32% | 1027.9 hPa | - | - | - | - |
| 1777638450 | 21.11° C | 32% | 1028.1 hPa | - | - | - | - |
| 1777637850 | 20.56° C | 31% | 1028.2 hPa | - | - | - | - |
* Rain since midnight (hover to see other rain measurements)
** Current wind speed in m/s (hover to see current wind gust speed)